DW1341 Weather Reports


time (UTC)temp
F
wind
direction
speed
knots
gust
knots
rain 1hr
in
rain 24hr
in
rain mn
in
humidity
%
barometer
mb
20260506091003 50 0 0.0 0.0 0.00 0.00 0.00 86 1014.2
20260506090003 51 0 0.0 0.0 0.00 0.00 0.00 86 1014.1
20260506085004 51 0 0.0 0.0 0.00 0.00 0.00 86 1014.0
20260506084003 51 0 0.0 0.0 0.00 0.00 0.00 86 1014.0
20260506083003 51 0 0.0 0.0 0.00 0.00 0.00 85 1013.9
20260506082003 52 0 0.0 0.0 0.00 0.00 0.00 85 1014.0
20260506081003 52 0 0.0 0.0 0.00 0.00 0.00 85 1013.9
20260506073004 53 0 0.0 0.0 0.00 0.00 0.00 85 1013.5
20260506072003 53 0 0.0 0.0 0.00 0.00 0.00 84 1013.4
20260506071003 53 0 0.0 0.0 0.00 0.00 0.00 84 1013.4
20260506062003 55 0 0.0 0.0 0.00 0.00 0.00 83 1013.2
20260506061003 55 0 0.0 0.0 0.00 0.00 0.00 83 1013.2
20260506051003 57 0 0.0 0.0 0.00 0.00 0.00 80 1012.7
20260506045024 58 0 0.0 0.0 0.00 0.00 0.00 77 1012.7
20260506044024 58 0 0.0 0.0 0.00 0.00 0.00 77 1012.5
20260506043003 59 0 0.0 0.0 0.00 0.00 0.00 76 1012.3
20260506042003 59 0 0.0 0.0 0.00 0.00 0.00 75 1012.2
20260506041003 60 0 0.0 0.0 0.00 0.00 0.00 75 1012.2
20260506040024 60 0 0.0 0.0 0.00 0.00 0.00 74 1012.1
20260506035003 61 0 0.0 0.0 0.00 0.00 0.00 74 1012.0
20260506034024 61 0 0.0 0.0 0.00 0.00 0.00 73 1012.0
20260506033003 62 0 0.0 0.0 0.00 0.00 0.00 72 1011.8
20260506032003 62 0 0.0 0.0 0.00 0.00 0.00 72 1011.7
20260506031003 63 0 0.0 0.0 0.00 0.00 0.00 71 1011.7
20260506030003 64 0 0.0 0.0 0.00 0.00 0.00 71 1011.6
20260506025003 64 0 0.0 0.0 0.00 0.00 0.00 70 1011.6
20260506024003 65 0 0.0 0.0 0.00 0.00 0.00 69 1011.6
20260506023003 66 0 0.0 0.0 0.00 0.00 0.00 69 1011.5
20260506022003 66 0 0.0 0.0 0.00 0.00 0.00 68 1011.4
20260506021003 67 0 0.0 0.0 0.00 0.00 0.00 67 1011.4
20260506020024 68 0 0.0 0.0 0.00 0.00 0.00 67 1011.5
20260506015003 68 0 0.0 0.0 0.00 0.00 0.00 66 1011.6
20260506014024 69 0 0.0 0.0 0.00 0.00 0.00 66 1011.5
20260506013024 69 0 0.0 0.0 0.00 0.00 0.00 65 1011.5
20260506012003 69 0 0.0 0.0 0.00 0.00 0.00 64 1011.4
20260506011003 69 0 0.0 0.0 0.00 0.00 0.00 64 1011.4
20260506010003 69 0 0.0 0.0 0.00 0.00 0.00 65 1011.5
20260506005003 70 0 0.0 0.0 0.00 0.00 0.00 65 1011.5
20260506004003 70 0 0.0 0.0 0.00 0.00 0.00 64 1011.5
20260506003024 70 0 0.0 0.0 0.00 0.00 0.00 65 1011.5
20260506002003 70 0 0.0 0.0 0.00 0.00 0.00 64 1011.5
20260506001003 70 0 0.0 0.0 0.00 0.00 0.00 66 1011.6
20260506000003 70 0 0.0 0.0 0.00 0.00 0.00 64 1011.7
20260505235024 70 0 0.0 0.0 0.00 0.00 0.00 62 1011.7
20260505234003 70 0 0.0 0.0 0.00 0.00 0.00 65 1011.8
20260505233003 70 0 0.0 0.0 0.00 0.00 0.00 64 1011.8
20260505232003 70 0 0.0 0.0 0.00 0.00 0.00 65 1011.9
20260505231003 70 0 0.0 0.0 0.00 0.00 0.00 66 1012.1
20260505230003 70 0 0.0 0.0 0.00 0.00 0.00 65 1012.1
20260505225003 71 0 0.0 0.0 0.00 0.00 0.00 66 1012.1
20260505224003 71 0 0.0 0.0 0.00 0.00 0.00 66 1012.2
20260505223003 70 0 0.0 0.0 0.00 0.00 0.00 67 1012.1
20260505222003 70 0 0.0 0.0 0.00 0.00 0.00 66 1012.1
20260505221003 70 0 0.0 0.0 0.00 0.00 0.00 64 1012.3
20260505220003 70 0 0.0 0.0 0.00 0.00 0.00 65 1012.3
20260505215003 70 0 0.0 0.0 0.00 0.00 0.00 67 1012.3
20260505214003 70 0 0.0 0.0 0.00 0.00 0.00 66 1012.3
20260505213003 70 0 0.0 0.0 0.00 0.00 0.00 66 1012.4
20260505212003 70 0 0.0 0.0 0.00 0.00 0.00 66 1012.5
20260505211003 70 0 0.0 0.0 0.00 0.00 0.00 66 1012.5
20260505210003 69 0 0.0 0.0 0.00 0.00 0.00 68 1012.6
20260505205003 69 0 0.0 0.0 0.00 0.00 0.00 68 1012.6
20260505204003 68 0 0.0 0.0 0.00 0.00 0.00 68 1012.7
20260505203003 68 0 0.0 0.0 0.00 0.00 0.00 70 1012.8
20260505202003 67 0 0.0 0.0 0.00 0.00 0.00 68 1012.7
20260505201003 67 0 0.0 0.0 0.00 0.00 0.00 72 1012.8
20260505200003 67 0 0.0 0.0 0.00 0.00 0.00 70 1012.9
20260505195003 67 0 0.0 0.0 0.00 0.00 0.00 72 1013.0
20260505194024 67 0 0.0 0.0 0.00 0.00 0.00 72 1012.9
20260505193003 66 0 0.0 0.0 0.00 0.00 0.00 74 1012.9
20260505192003 66 0 0.0 0.0 0.00 0.00 0.00 73 1012.9
20260505191003 65 0 0.0 0.0 0.00 0.00 0.00 74 1013.0
20260505190004 65 0 0.0 0.0 0.00 0.00 0.00 74 1013.0
20260505185003 64 0 0.0 0.0 0.00 0.00 0.00 76 1013.0
20260505184003 64 0 0.0 0.0 0.00 0.00 0.00 74 1013.0
20260505183024 64 0 0.0 0.0 0.00 0.00 0.00 77 1012.9
20260505182003 63 0 0.0 0.0 0.00 0.00 0.00 75 1013.0
20260505181003 63 0 0.0 0.0 0.00 0.00 0.00 76 1012.9
20260505180003 62 0 0.0 0.0 0.00 0.00 0.00 77 1012.9
20260505175003 62 0 0.0 0.0 0.00 0.00 0.00 76 1012.9
20260505174003 63 0 0.0 0.0 0.00 0.00 0.00 77 1013.0
20260505173003 62 0 0.0 0.0 0.00 0.00 0.00 79 1012.9
20260505172003 62 0 0.0 0.0 0.00 0.00 0.00 77 1013.0
20260505171003 62 0 0.0 0.0 0.00 0.00 0.00 78 1013.0
20260505170003 62 0 0.0 0.0 0.00 0.00 0.00 77 1013.0
20260505165003 62 0 0.0 0.0 0.00 0.00 0.00 79 1013.0
20260505164003 61 0 0.0 0.0 0.00 0.00 0.00 80 1013.0
20260505163003 60 0 0.0 0.0 0.00 0.00 0.00 80 1013.0
20260505162003 60 0 0.0 0.0 0.00 0.00 0.00 81 1012.9
20260505161003 60 0 0.0 0.0 0.00 0.00 0.00 81 1013.0
20260505153003 56 0 0.0 0.0 0.00 0.00 0.00 88 1012.8
20260505152024 55 0 0.0 0.0 0.00 0.00 0.00 88 1012.8
20260505151003 54 0 0.0 0.0 0.00 0.00 0.00 88 1012.8
20260505125024 50 0 0.0 0.0 0.00 0.00 0.00 85 1011.1
20260505124024 50 0 0.0 0.0 0.00 0.00 0.00 85 1011.1
20260505123004 50 0 0.0 0.0 0.00 0.00 0.00 85 1010.9
20260505122003 50 0 0.0 0.0 0.00 0.00 0.00 85 1011.0
20260505121003 51 0 0.0 0.0 0.00 0.00 0.00 85 1010.9
20260505120004 51 0 0.0 0.0 0.00 0.00 0.00 84 1010.7
20260505115003 51 0 0.0 0.0 0.00 0.00 0.00 85 1010.5
20260505114003 51 0 0.0 0.0 0.00 0.00 0.00 84 1010.4
20260505113024 52 0 0.0 0.0 0.00 0.00 0.00 84 1010.2
20260505112024 52 0 0.0 0.0 0.00 0.00 0.00 84 1010.3
20260505111003 52 0 0.0 0.0 0.00 0.00 0.00 84 1010.2
20260505102003 53 0 0.0 0.0 0.00 0.00 0.00 84 1009.6
20260505101003 53 0 0.0 0.0 0.00 0.00 0.00 84 1009.5
20260505100003 53 0 0.0 0.0 0.00 0.00 0.00 84 1009.4
20260505095003 53 0 0.0 0.0 0.00 0.00 0.00 83 1009.3
20260505094003 54 0 0.0 0.0 0.00 0.00 0.00 83 1009.2
20260505093003 54 0 0.0 0.0 0.00 0.00 0.00 81 1009.2
20260505092024 54 0 0.0 0.0 0.00 0.00 0.00 81 1009.2